KI5RKU-09 Weather Reports


time (UTC)temp
F
wind
direction
speed
knots
gust
knots
rain 1hr
in
rain 24hr
in
rain mn
in
humidity
%
barometer
mb
20260509065527 70 254 2.6 6.1 0.00 0.05 0.00 84 1011.5
20260509065027 70 215 2.6 6.1 0.00 0.05 0.00 83 1011.5
20260509064553 70 251 1.7 7.0 0.00 0.05 0.00 83 1011.4
20260509064030 70 206 2.6 7.0 0.00 0.05 0.00 83 1011.3
20260509063524 71 207 3.5 7.8 0.00 0.05 0.00 83 1011.1
20260509063041 71 166 3.5 8.7 0.00 0.05 0.00 82 1010.9
20260509062527 71 172 4.3 8.7 0.00 0.05 0.00 82 1010.9
20260509062028 71 161 3.5 7.8 0.00 0.05 0.00 82 1010.9
20260509061550 70 182 4.3 8.7 0.00 0.05 0.00 82 1011.0
20260509061027 70 179 2.6 8.7 0.00 0.05 0.00 82 1011.1
20260509060527 70 184 5.2 8.7 0.00 0.05 0.00 82 1010.9
20260509060035 70 200 5.2 8.7 0.00 0.05 0.00 82 1010.8
20260509055527 70 179 5.2 7.8 0.00 0.05 0.00 82 1010.8
20260509055026 70 196 2.6 5.2 0.00 0.05 0.00 82 1011.2
20260509054600 71 187 1.7 4.3 0.00 0.05 0.00 81 1011.6
20260509054028 71 187 2.6 4.3 0.00 0.05 0.00 81 1011.6
20260509053529 71 187 0.9 4.3 0.00 0.05 0.00 81 1012.0
20260509053046 71 187 0.9 5.2 0.00 0.05 0.00 80 1011.8
20260509052524 71 172 2.6 5.2 0.00 0.05 0.00 79 1011.7
20260509052032 72 186 2.6 4.3 0.00 0.05 0.00 79 1011.8
20260509051547 71 292 0.9 5.2 0.00 0.05 0.00 79 1012.5
20260509051027 71 298 1.7 5.2 0.00 0.05 0.00 79 1012.7
20260509050529 71 306 1.7 3.5 0.00 0.05 0.00 80 1012.6
20260509050042 71 0 0.0 7.8 0.00 0.05 0.00 79 1011.8
20260509045529 71 229 3.5 7.8 0.00 0.05 0.05 79 1011.2
20260509045028 71 169 3.5 9.6 0.00 0.05 0.05 79 1011.0
20260509044538 71 167 3.5 10.4 0.00 0.05 0.05 79 1010.9
20260509044029 71 173 4.3 12.2 0.00 0.05 0.05 78 1010.7
20260509043527 71 184 5.2 12.2 0.00 0.05 0.05 78 1010.7
20260509043043 72 163 5.2 8.7 0.00 0.05 0.05 77 1010.6
20260509042528 72 161 1.7 5.2 0.00 0.05 0.05 77 1010.9
20260509042029 72 148 1.7 5.2 0.00 0.05 0.05 76 1011.0
20260509041542 72 171 0.0 7.0 0.00 0.05 0.05 76 1010.9
20260509041031 72 86 1.7 9.6 0.00 0.05 0.05 76 1010.9
20260509040528 72 162 3.5 9.6 0.00 0.05 0.05 77 1010.6
20260509040046 72 184 3.5 9.6 0.00 0.05 0.05 76 1010.7
20260509035528 72 146 0.9 5.2 0.00 0.05 0.05 76 1010.9
20260509035028 73 111 0.9 5.2 0.00 0.05 0.05 76 1010.9
20260509034541 72 116 0.0 1.7 0.00 0.05 0.05 76 1011.1
20260509034028 72 116 0.0 1.7 0.00 0.05 0.05 77 1011.5
20260509033530 72 116 0.0 1.7 0.00 0.05 0.05 76 1011.7
20260509033036 72 0 0.0 1.7 0.00 0.05 0.05 76 1011.6
20260509032528 72 0 0.0 1.7 0.00 0.05 0.05 76 1011.3
20260509032029 72 0 0.0 2.6 0.00 0.05 0.05 77 1011.2
20260509031559 72 0 0.0 2.6 0.00 0.05 0.05 77 1011.1
20260509031028 72 116 0.0 4.3 0.00 0.05 0.05 77 1011.2
20260509030528 72 0 0.0 4.3 0.00 0.05 0.05 77 1011.0
20260509030042 72 71 0.9 4.3 0.00 0.05 0.05 77 1011.1
20260509025526 72 111 0.9 4.3 0.00 0.05 0.05 77 1011.1
20260509025028 72 148 0.0 7.8 0.00 0.05 0.05 77 1010.8
20260509024538 72 148 0.9 9.6 0.00 0.05 0.05 77 1010.7
20260509024032 72 111 2.6 10.4 0.00 0.05 0.05 77 1010.5
20260509023527 72 127 4.3 10.4 0.00 0.05 0.05 77 1010.3
20260509023039 72 155 2.6 10.4 0.00 0.05 0.05 77 1010.1
20260509022532 72 116 5.2 10.4 0.00 0.05 0.05 77 1009.9
20260509022029 72 158 3.5 10.4 0.00 0.05 0.05 77 1010.0
20260509021542 72 108 3.5 9.6 0.00 0.05 0.05 76 1009.6
20260509021027 72 163 2.6 7.8 0.00 0.05 0.05 76 1009.6
20260509020527 72 167 2.6 9.6 0.00 0.05 0.05 76 1009.8
20260509020045 72 148 4.3 10.4 0.00 0.05 0.05 76 1009.9
20260509015528 72 138 3.5 10.4 0.00 0.05 0.05 75 1009.7
20260509015030 72 173 3.5 9.6 0.00 0.05 0.05 75 1009.7
20260509014544 72 164 4.3 9.6 0.00 0.05 0.05 75 1009.7
20260509014028 72 164 4.3 9.6 0.00 0.05 0.05 75 1009.4
20260509013527 72 193 3.5 8.7 0.00 0.05 0.05 75 1009.5
20260509013043 72 146 3.5 8.7 0.00 0.05 0.05 75 1009.7
20260509012529 72 160 3.5 7.0 0.00 0.05 0.05 74 1009.6
20260509012029 72 167 1.7 7.0 0.00 0.05 0.05 74 1009.6
20260509011537 72 163 3.5 7.8 0.00 0.05 0.05 74 1009.6
20260509011029 72 183 3.5 9.6 0.00 0.05 0.05 74 1009.6
20260509010528 72 172 3.5 12.2 0.00 0.05 0.05 74 1009.6
20260509010043 73 196 5.2 12.2 0.00 0.05 0.05 73 1009.6
20260509005530 73 192 2.6 13.0 0.00 0.05 0.05 73 1009.4
20260509005028 73 166 4.3 13.0 0.00 0.05 0.05 73 1009.3
20260509004543 73 182 5.2 11.3 0.00 0.05 0.05 72 1009.2
20260509004028 73 166 4.3 10.4 0.00 0.05 0.05 72 1009.1
20260509003530 73 162 5.2 12.2 0.00 0.05 0.05 72 1008.9
20260509003046 73 165 6.1 12.2 0.00 0.05 0.05 72 1008.8
20260509002528 73 177 5.2 13.0 0.00 0.05 0.05 72 1008.8
20260509002029 73 136 6.1 13.0 0.00 0.05 0.05 71 1008.9
20260509001542 74 161 5.2 13.0 0.00 0.05 0.05 71 1008.9
20260509001029 74 149 5.2 13.9 0.00 0.05 0.05 71 1008.8
20260509000529 74 170 7.8 13.9 0.00 0.05 0.05 71 1008.9
20260509000044 74 183 6.1 12.2 0.00 0.05 0.05 71 1008.9
20260508235528 74 111 5.2 12.2 0.00 0.05 0.05 71 1009.1
20260508235028 74 132 5.2 12.2 0.00 0.05 0.05 71 1009.2
20260508234549 74 151 6.1 12.2 0.00 0.05 0.05 70 1009.3
20260508234027 74 185 3.5 9.6 0.00 0.05 0.05 69 1009.3
20260508233528 74 177 1.7 10.4 0.00 0.05 0.05 69 1009.3
20260508233043 74 192 6.1 10.4 0.00 0.05 0.05 68 1009.3
20260508232528 75 183 3.5 9.6 0.00 0.05 0.05 67 1009.4
20260508232026 75 167 2.6 9.6 0.00 0.05 0.05 68 1009.4
20260508231542 75 169 3.5 9.6 0.00 0.05 0.05 68 1009.5
20260508231029 75 167 3.5 10.4 0.00 0.05 0.05 68 1009.4
20260508230528 74 141 5.2 11.3 0.00 0.05 0.05 68 1009.5
20260508230100 74 132 5.2 11.3 0.00 0.05 0.05 68 1009.5
20260508225531 75 167 5.2 12.2 0.00 0.05 0.05 67 1009.5
20260508225028 75 168 5.2 13.0 0.00 0.05 0.05 67 1009.5
20260508224548 75 182 5.2 13.0 0.00 0.05 0.05 67 1009.5
20260508224028 75 117 2.6 9.6 0.00 0.05 0.05 67 1009.5
20260508223527 75 182 3.5 9.6 0.00 0.05 0.05 67 1009.5
20260508223042 76 151 3.5 14.8 0.00 0.05 0.05 67 1009.6
20260508222527 76 181 4.3 14.8 0.00 0.05 0.05 66 1009.5
20260508222028 75 186 7.8 13.9 0.00 0.05 0.05 66 1009.4
20260508221542 76 176 5.2 11.3 0.00 0.05 0.05 66 1009.4
20260508221028 76 193 5.2 11.3 0.00 0.05 0.05 64 1009.3
20260508220529 76 156 4.3 11.3 0.00 0.05 0.05 64 1009.4
20260508220111 77 195 2.6 12.2 0.00 0.05 0.05 63 1009.4
20260508215528 77 175 5.2 13.0 0.00 0.05 0.05 64 1009.3
20260508215028 77 165 6.1 13.0 0.00 0.05 0.05 63 1009.3
20260508214542 77 188 2.6 12.2 0.00 0.05 0.05 64 1009.2
20260508214030 77 153 4.3 12.2 0.00 0.05 0.05 64 1009.4
20260508213528 77 144 6.1 11.3 0.00 0.05 0.05 62 1009.5
20260508213040 77 0 4.3 9.6 0.00 0.05 0.05 62 1009.5
20260508212528 78 186 3.5 8.7 0.00 0.05 0.05 61 1009.5
20260508212027 77 155 3.5 9.6 0.00 0.05 0.05 63 1009.5
20260508211547 76 157 3.5 10.4 0.00 0.05 0.05 64 1009.6
20260508211028 76 126 2.6 13.9 0.00 0.05 0.05 65 1009.7
20260508210528 76 165 7.0 13.9 0.00 0.05 0.05 64 1009.9
20260508210044 75 195 3.5 11.3 0.00 0.05 0.05 65 1010.2
20260508205527 74 198 5.2 13.0 0.00 0.05 0.05 66 1010.4
20260508205028 74 182 6.1 13.0 0.00 0.05 0.05 66 1010.7
20260508204544 74 186 6.1 13.9 0.00 0.05 0.05 66 1011.0
20260508204031 74 184 6.1 13.9 0.00 0.05 0.05 66 1011.3
20260508203528 74 172 7.8 12.2 0.00 0.05 0.05 65 1011.5
20260508203046 74 186 6.1 11.3 0.00 0.05 0.05 66 1011.6
20260508202528 75 187 3.5 10.4 0.00 0.05 0.05 65 1011.6
20260508202027 75 188 5.2 12.2 0.00 0.05 0.05 65 1011.5
20260508201537 75 202 3.5 12.2 0.00 0.05 0.05 65 1011.5
20260508201028 75 169 3.5 10.4 0.00 0.05 0.05 65 1011.6
20260508200526 75 175 5.2 10.4 0.00 0.05 0.05 64 1011.6
20260508200035 75 182 4.3 8.7 0.00 0.05 0.05 64 1011.7
20260508195529 76 183 1.7 7.8 0.00 0.05 0.05 65 1011.6
20260508195028 75 164 2.6 12.2 0.00 0.05 0.05 64 1011.6
20260508194541 75 175 6.1 12.2 0.00 0.05 0.05 64 1011.6
20260508194029 75 165 4.3 12.2 0.00 0.05 0.05 64 1011.7
20260508193528 76 189 4.3 9.6 0.00 0.05 0.05 63 1011.6
20260508193048 76 205 4.3 9.6 0.00 0.05 0.05 62 1011.7
20260508192528 77 225 4.3 11.3 0.00 0.05 0.05 62 1011.7
20260508192027 77 222 6.1 11.3 0.00 0.05 0.05 61 1011.7
20260508191539 77 188 2.6 7.8 0.00 0.05 0.05 61 1011.7
20260508191029 77 171 2.6 7.8 0.00 0.05 0.05 61 1011.7
20260508190528 77 194 2.6 7.8 0.00 0.05 0.05 61 1011.8
20260508190043 77 143 2.6 9.6 0.00 0.05 0.05 59 1011.8
20260508185532 77 151 1.7 10.4 0.00 0.05 0.05 61 1011.9
20260508185028 77 162 2.6 10.4 0.00 0.05 0.05 62 1011.8
20260508184548 76 187 3.5 11.3 0.00 0.05 0.05 60 1011.9
20260508184029 76 163 3.5 11.3 0.00 0.05 0.05 60 1012.0
20260508183527 77 140 0.9 7.8 0.00 0.05 0.05 61 1012.0
20260508183045 76 198 1.7 10.4 0.00 0.05 0.05 60 1012.0
20260508182531 75 0 2.6 10.4 0.00 0.05 0.05 62 1012.1
20260508182026 75 182 2.6 10.4 0.00 0.05 0.05 62 1012.3
20260508181603 75 149 3.5 10.4 0.00 0.05 0.05 61 1012.5
20260508181026 75 186 2.6 9.6 0.00 0.05 0.05 60 1012.6
20260508180528 75 0 2.6 10.4 0.00 0.05 0.05 60 1012.8
20260508180048 75 0 2.6 10.4 0.00 0.05 0.05 61 1012.9
20260508175528 74 201 3.5 9.6 0.00 0.05 0.05 61 1013.0
20260508175027 74 34 1.7 10.4 0.00 0.05 0.05 64 1013.0
20260508174554 74 96 2.6 10.4 0.00 0.05 0.05 63 1012.9
20260508174027 73 144 2.6 7.0 0.00 0.05 0.05 63 1013.1
20260508173526 73 182 3.5 7.0 0.00 0.05 0.05 63 1013.1
20260508173043 73 0 0.9 8.7 0.00 0.05 0.05 64 1013.1
20260508172529 72 63 4.3 9.6 0.00 0.05 0.05 64 1013.2
20260508172028 72 140 4.3 9.6 0.00 0.05 0.05 64 1013.3
20260508171545 72 180 3.5 9.6 0.00 0.05 0.05 65 1013.5
20260508171026 72 118 4.3 9.6 0.00 0.05 0.05 65 1013.5
20260508170530 71 122 2.6 8.7 0.00 0.05 0.05 66 1013.7
20260508170043 71 169 5.2 10.4 0.00 0.05 0.05 65 1013.9
20260508165528 71 200 4.3 10.4 0.00 0.05 0.05 66 1014.0
20260508165028 71 138 5.2 9.6 0.00 0.05 0.05 65 1014.1
20260508164543 70 123 5.2 9.6 0.00 0.05 0.05 65 1014.1
20260508164026 70 180 2.6 9.6 0.00 0.05 0.05 67 1014.3
20260508163528 69 185 4.3 9.6 0.00 0.05 0.05 67 1014.4
20260508163039 69 150 1.7 9.6 0.00 0.05 0.05 67 1014.6
20260508162528 69 173 1.7 9.6 0.00 0.05 0.05 69 1014.8
20260508162030 68 105 3.5 10.4 0.00 0.05 0.05 68 1014.7
20260508161543 68 193 3.5 12.2 0.00 0.05 0.05 69 1014.8
20260508161029 67 156 6.1 12.2 0.00 0.05 0.05 68 1014.9
20260508160528 67 164 3.5 10.4 0.00 0.05 0.05 69 1014.9
20260508160044 67 179 3.5 10.4 0.00 0.05 0.05 69 1014.9
20260508155532 67 153 2.6 9.6 0.00 0.05 0.05 70 1014.9
20260508155031 67 163 4.3 9.6 0.00 0.05 0.05 69 1014.9
20260508154545 67 0 1.7 7.0 0.00 0.05 0.05 71 1015.0
20260508154031 67 78 1.7 8.7 0.00 0.05 0.05 71 1015.2
20260508153531 66 177 2.6 8.7 0.00 0.05 0.05 71 1015.0
20260508153043 66 136 4.3 8.7 0.00 0.05 0.05 70 1015.2
20260508152528 66 160 3.5 8.7 0.00 0.05 0.05 70 1015.2
20260508152028 66 178 4.3 10.4 0.00 0.05 0.05 71 1015.0
20260508151542 66 178 6.1 10.4 0.00 0.05 0.05 70 1015.1
20260508151027 66 160 2.6 7.8 0.00 0.05 0.05 72 1015.1
20260508150527 66 155 3.5 7.8 0.00 0.05 0.05 72 1015.1
20260508150042 66 171 2.6 7.0 0.00 0.05 0.05 73 1015.1
20260508145528 65 171 0.9 8.7 0.00 0.05 0.05 74 1015.1
20260508145027 65 106 3.5 8.7 0.00 0.05 0.05 73 1015.1
20260508144543 65 157 2.6 7.0 0.00 0.05 0.05 75 1015.2
20260508144028 65 184 2.6 10.4 0.00 0.05 0.05 76 1015.1
20260508143529 64 158 2.6 10.4 0.00 0.05 0.05 76 1015.1
20260508143046 64 171 5.2 8.7 0.00 0.05 0.05 76 1015.2
20260508142530 64 173 2.6 7.8 0.00 0.05 0.05 77 1015.3
20260508142030 64 144 1.7 7.0 0.00 0.05 0.05 78 1015.3
20260508141553 64 138 2.6 7.0 0.00 0.05 0.05 79 1015.3
20260508141026 63 138 1.7 6.1 0.00 0.05 0.05 82 1015.3
20260508140529 63 0 1.7 6.1 0.00 0.05 0.05 82 1015.3
20260508140042 63 0 0.9 4.3 0.00 0.05 0.05 82 1015.4
20260508135530 63 0 0.9 4.3 0.00 0.05 0.05 83 1015.4
20260508135027 63 102 0.9 4.3 0.00 0.05 0.05 84 1015.1
20260508134555 62 135 0.9 4.3 0.00 0.05 0.05 85 1015.1
20260508134027 62 0 0.9 7.0 0.00 0.05 0.05 85 1015.2
20260508133529 61 136 1.7 7.0 0.00 0.05 0.05 85 1015.2
20260508133043 61 0 0.0 7.0 0.00 0.05 0.05 86 1015.2
20260508132532 61 170 2.6 7.0 0.00 0.05 0.05 87 1015.2
20260508132029 61 141 1.7 6.1 0.00 0.05 0.05 88 1015.2
20260508131541 60 158 1.7 4.3 0.00 0.05 0.05 88 1015.4
20260508131028 60 122 0.9 4.3 0.00 0.05 0.05 88 1015.3
20260508130528 60 0 0.0 2.6 0.01 0.05 0.05 88 1015.3
20260508130040 60 81 0.0 3.5 0.01 0.05 0.05 88 1015.3
20260508125528 60 0 0.0 3.5 0.01 0.05 0.05 88 1015.3
20260508125027 60 159 0.0 5.2 0.01 0.05 0.05 87 1015.6
20260508124542 60 159 1.7 5.2 0.01 0.05 0.05 87 1015.7
20260508124027 60 159 1.7 5.2 0.01 0.05 0.05 87 1015.5
20260508123528 60 179 0.9 3.5 0.01 0.05 0.05 86 1015.2
20260508123051 60 179 1.7 4.3 0.01 0.05 0.05 85 1015.9
20260508122530 60 179 1.7 4.3 0.01 0.05 0.05 85 1016.0
20260508122028 61 0 1.7 7.0 0.01 0.05 0.05 85 1015.5
20260508121543 60 170 0.9 7.0 0.01 0.05 0.05 86 1015.5
20260508121028 60 130 2.6 7.0 0.00 0.04 0.04 86 1015.5
20260508120528 60 155 3.5 8.7 0.00 0.04 0.04 87 1015.4
20260508120045 60 168 2.6 8.7 0.00 0.04 0.04 88 1015.5
20260508115527 60 115 2.6 7.8 0.00 0.04 0.04 89 1015.4
20260508115025 60 161 2.6 7.8 0.00 0.04 0.04 90 1015.4
20260508114549 60 137 5.2 7.8 0.01 0.04 0.04 90 1015.8
20260508114029 60 156 2.6 6.1 0.01 0.04 0.04 90 1015.5
20260508113527 60 150 2.6 6.1 0.01 0.04 0.04 91 1015.3
20260508113054 61 145 1.7 3.5 0.01 0.04 0.04 91 1015.4
20260508112527 61 0 0.0 0.9 0.01 0.04 0.04 91 1015.4
20260508112026 60 0 0.0 3.5 0.01 0.04 0.04 91 1015.4
20260508111546 60 0 0.0 4.3 0.01 0.04 0.04 91 1015.4
20260508111028 60 0 0.9 4.3 0.01 0.04 0.04 91 1014.8
20260508110528 61 73 0.9 4.3 0.01 0.04 0.04 91 1014.9
20260508110039 60 73 0.9 2.6 0.01 0.04 0.04 91 1015.3
20260508105528 61 0 0.0 5.2 0.01 0.04 0.04 91 1015.8
20260508105027 60 0 1.7 5.2 0.00 0.03 0.03 90 1016.2
20260508104542 60 279 0.9 2.6 0.00 0.03 0.03 90 1016.2
20260508104026 60 0 0.0 2.6 0.00 0.03 0.03 90 1015.3
20260508103528 60 0 0.9 5.2 0.00 0.03 0.03 90 1015.6
20260508103042 60 279 0.9 5.2 0.00 0.03 0.03 90 1015.5
20260508102529 60 232 0.0 2.6 0.00 0.03 0.03 90 1015.3
20260508102028 60 0 0.0 2.6 0.01 0.03 0.03 90 1014.5
20260508101540 60 232 0.0 7.8 0.01 0.03 0.03 89 1014.5
20260508101025 60 232 1.7 7.8 0.01 0.03 0.03 89 1015.3
20260508100528 60 162 3.5 7.8 0.01 0.03 0.03 89 1014.6
20260508100039 61 150 1.7 3.5 0.01 0.03 0.03 90 1014.3
20260508095526 61 157 0.0 1.7 0.01 0.03 0.03 90 1014.4
20260508095032 60 0 0.0 2.6 0.01 0.03 0.03 90 1014.5
20260508094604 61 0 0.0 3.5 0.01 0.03 0.03 89 1014.4
20260508094026 60 157 0.9 4.3 0.01 0.03 0.03 90 1014.5
20260508093528 60 149 0.9 4.3 0.02 0.03 0.03 89 1014.6
20260508093043 61 0 0.0 1.7 0.02 0.03 0.03 89 1014.5
20260508092526 61 0 0.0 0.9 0.02 0.03 0.03 90 1014.5
20260508092028 60 0 0.0 1.7 0.01 0.02 0.02 89 1014.8
20260508091543 60 0 0.0 1.7 0.01 0.02 0.02 89 1014.6
20260508091030 60 0 0.0 1.7 0.01 0.02 0.02 89 1014.6
20260508090528 60 0 0.0 1.7 0.01 0.02 0.02 89 1014.8
20260508090043 60 0 0.0 2.6 0.02 0.02 0.02 89 1015.0
20260508085527 60 0 0.0 2.6 0.02 0.02 0.02 88 1014.9
20260508085027 60 5 1.7 2.6 0.02 0.02 0.02 87 1015.0
20260508084541 60 0 0.0 4.3 0.02 0.02 0.02 87 1015.4
20260508084027 60 0 0.9 4.3 0.02 0.02 0.02 87 1015.5
20260508083527 60 286 1.7 6.1 0.01 0.01 0.01 86 1015.5
20260508083043 61 190 0.9 6.1 0.01 0.01 0.01 86 1014.9
20260508082525 61 130 0.9 4.3 0.01 0.01 0.01 86 1014.2
20260508082028 61 97 0.9 4.3 0.01 0.01 0.01 86 1014.8
20260508081600 61 82 0.9 3.5 0.01 0.01 0.01 85 1015.1
20260508081029 61 82 0.0 2.6 0.01 0.01 0.01 83 1015.9
20260508080528 62 0 0.0 3.5 0.01 0.01 0.01 80 1015.7
20260508080039 63 82 0.9 3.5 0.00 0.00 0.00 76 1015.5
20260508075526 63 128 0.9 2.6 0.00 0.00 0.00 73 1015.7
20260508075027 63 0 0.0 3.5 0.00 0.00 0.00 72 1016.5
20260508074542 63 163 0.9 3.5 0.00 0.00 0.00 72 1016.9
20260508074028 63 163 0.0 1.7 0.00 0.00 0.00 71 1016.7
20260508073528 63 0 0.9 1.7 0.00 0.00 0.00 71 1016.6
20260508073044 63 0 0.0 1.7 0.00 0.00 0.00 71 1016.3
20260508072524 63 0 0.0 1.7 0.00 0.00 0.00 71 1015.9
20260508072027 63 0 0.0 1.7 0.00 0.00 0.00 71 1015.9
20260508071546 63 0 0.0 3.5 0.00 0.00 0.00 71 1015.8
20260508071027 63 0 0.0 3.5 0.00 0.00 0.00 71 1015.9
20260508070528 63 0 0.0 0.9 0.00 0.00 0.00 71 1016.0
20260508070044 63 0 0.0 1.7 0.00 0.00 0.00 71 1016.0